Time,TemperatureF,DewpointF,PressureIn,WindDirection,WindDirectionDegrees,WindSpeedMPH,WindSpeedGustMPH,Humidity,HourlyPrecipIn,Conditions,Clouds,dailyrainin,SoftwareType,DateUTC
2013-01-19 13:32:00,37.0,27.0,29.76,West,273,1.0,-999.0,68,-99.99,,,-99.99,,2013-01-19 19:32:00,
2013-01-19 13:40:00,37.0,27.0,29.76,West,273,1.0,-999.0,68,-99.99,,,-99.99,,2013-01-19 19:40:00,
2013-01-19 13:57:00,37.0,26.0,29.76,West,276,14.0,-999.0,65,-99.99,,,-99.99,,2013-01-19 19:57:00,
2013-01-19 14:09:00,37.0,26.0,29.76,West,276,14.0,-999.0,65,-99.99,,,-99.99,,2013-01-19 20:09:00,
2013-01-19 14:19:00,37.0,26.0,29.76,West,276,14.0,-999.0,65,-99.99,,,-99.99,,2013-01-19 20:19:00,
2013-01-19 14:37:00,37.0,26.0,29.77,WNW,295,7.0,-999.0,65,-99.99,,,-99.99,,2013-01-19 20:37:00,
2013-01-19 14:58:00,31.0,16.0,29.80,WNW,295,21.0,-999.0,53,-99.99,,,-99.99,,2013-01-19 20:58:00,
2013-01-19 15:05:00,31.0,16.0,29.80,WNW,295,21.0,-999.0,53,-99.99,,,-99.99,,2013-01-19 21:05:00,
2013-01-19 15:14:00,31.0,16.0,29.80,WNW,295,21.0,-999.0,53,-99.99,,,-99.99,,2013-01-19 21:14:00,
2013-01-19 15:25:00,26.0,10.0,29.84,WNW,289,4.0,-999.0,50,-99.99,,,-99.99,,2013-01-19 21:25:00,
2013-01-19 15:53:00,26.0,10.0,29.84,WNW,289,4.0,-999.0,50,-99.99,,,-99.99,,2013-01-19 21:53:00,
2013-01-19 15:59:00,20.0,4.0,29.90,WNW,297,18.0,-999.0,49,-99.99,,,-99.99,,2013-01-19 21:59:00,
2013-01-19 16:11:00,20.0,4.0,29.90,WNW,297,18.0,-999.0,49,-99.99,,,-99.99,,2013-01-19 22:11:00,
2013-01-19 16:18:00,20.0,4.0,29.90,WNW,297,18.0,-999.0,49,-99.99,,,-99.99,,2013-01-19 22:18:00,
2013-01-19 16:25:00,18.0,3.0,29.93,West,271,13.0,-999.0,50,-99.99,,,-99.99,,2013-01-19 22:25:00,
2013-01-19 16:34:00,18.0,3.0,29.93,West,271,13.0,-999.0,50,-99.99,,,-99.99,,2013-01-19 22:34:00,
2013-01-19 16:49:00,18.0,3.0,29.93,West,271,13.0,-999.0,50,-99.99,,,-99.99,,2013-01-19 22:49:00,
2013-01-19 16:58:00,15.0,-2.0,29.96,WNW,293,26.0,-999.0,46,-99.99,,,-99.99,,2013-01-19 22:58:00,
2013-01-19 17:11:00,15.0,-2.0,29.96,WNW,293,26.0,-999.0,46,-99.99,,,-99.99,,2013-01-19 23:11:00,
2013-01-19 17:25:00,13.0,-4.0,30.00,WNW,296,19.0,-999.0,45,-99.99,,,-99.99,,2013-01-19 23:25:00,
2013-01-19 17:34:00,13.0,-4.0,30.00,WNW,296,19.0,-999.0,45,-99.99,,,-99.99,,2013-01-19 23:34:00,
2013-01-19 17:50:00,13.0,-4.0,30.00,WNW,296,19.0,-999.0,45,-99.99,,,-99.99,,2013-01-19 23:50:00,
2013-01-19 18:06:00,12.0,-3.0,30.02,WNW,300,16.0,-999.0,49,-99.99,,,-99.99,,2013-01-20 00:06:00,
2013-01-19 18:15:00,12.0,-3.0,30.02,WNW,300,16.0,-999.0,49,-99.99,,,-99.99,,2013-01-20 00:15:00,
2013-01-19 18:25:00,10.0,-5.0,30.05,WNW,302,10.0,-999.0,49,-99.99,,,-99.99,,2013-01-20 00:25:00,
2013-01-19 18:35:00,10.0,-5.0,30.05,WNW,302,10.0,-999.0,49,-99.99,,,-99.99,,2013-01-20 00:35:00,
2013-01-19 18:48:00,10.0,-5.0,30.05,WNW,302,10.0,-999.0,49,-99.99,,,-99.99,,2013-01-20 00:48:00,
2013-01-19 18:55:00,9.0,-7.0,30.08,WNW,299,9.0,-999.0,48,-99.99,,,-99.99,,2013-01-20 00:55:00,
2013-01-19 19:03:00,9.0,-7.0,30.08,WNW,299,9.0,-999.0,48,-99.99,,,-99.99,,2013-01-20 01:03:00,
2013-01-19 19:19:00,9.0,-7.0,30.08,WNW,299,9.0,-999.0,48,-99.99,,,-99.99,,2013-01-20 01:19:00,
2013-01-19 19:25:00,7.0,-9.0,30.12,WNW,300,8.0,-999.0,46,-99.99,,,-99.99,,2013-01-20 01:25:00,
2013-01-19 19:35:00,7.0,-9.0,30.12,WNW,300,8.0,-999.0,46,-99.99,,,-99.99,,2013-01-20 01:35:00,
2013-01-19 19:50:00,7.0,-9.0,30.12,WNW,300,8.0,-999.0,46,-99.99,,,-99.99,,2013-01-20 01:50:00,
2013-01-19 20:03:00,5.0,-11.0,30.15,WNW,302,3.0,-999.0,46,-99.99,,,-99.99,,2013-01-20 02:03:00,
2013-01-19 20:14:00,5.0,-11.0,30.15,WNW,302,3.0,-999.0,46,-99.99,,,-99.99,,2013-01-20 02:14:00,
2013-01-19 20:25:00,4.0,-11.0,30.16,WNW,291,9.0,-999.0,49,-99.99,,,-99.99,,2013-01-20 02:25:00,
2013-01-19 20:35:00,4.0,-11.0,30.16,WNW,291,9.0,-999.0,49,-99.99,,,-99.99,,2013-01-20 02:35:00,
2013-01-19 20:45:00,4.0,-11.0,30.16,WNW,291,9.0,-999.0,49,-99.99,,,-99.99,,2013-01-20 02:45:00,
2013-01-19 20:58:00,3.0,-11.0,30.19,NW,315,4.0,-999.0,51,-99.99,,,-99.99,,2013-01-20 02:58:00,
2013-01-19 21:07:00,3.0,-11.0,30.19,NW,315,4.0,-999.0,51,-99.99,,,-99.99,,2013-01-20 03:07:00,
2013-01-19 21:14:00,3.0,-11.0,30.19,NW,315,4.0,-999.0,51,-99.99,,,-99.99,,2013-01-20 03:14:00,
2013-01-19 21:24:00,3.0,-10.0,30.21,NW,313,0.0,-999.0,53,-99.99,,,-99.99,,2013-01-20 03:24:00,
2013-01-19 21:37:00,3.0,-10.0,30.21,NW,313,0.0,-999.0,53,-99.99,,,-99.99,,2013-01-20 03:37:00,
2013-01-19 21:47:00,3.0,-10.0,30.21,NW,313,0.0,-999.0,53,-99.99,,,-99.99,,2013-01-20 03:47:00,
2013-01-19 21:57:00,3.0,-11.0,30.22,NW,313,0.0,-999.0,51,-99.99,,,-99.99,,2013-01-20 03:57:00,
2013-01-19 22:04:00,3.0,-11.0,30.22,NW,313,0.0,-999.0,51,-99.99,,,-99.99,,2013-01-20 04:04:00,
2013-01-19 22:15:00,3.0,-11.0,30.22,NW,313,0.0,-999.0,51,-99.99,,,-99.99,,2013-01-20 04:15:00,
2013-01-19 22:25:00,3.0,-11.0,30.24,WNW,300,0.0,-999.0,51,-99.99,,,-99.99,,2013-01-20 04:25:00,
2013-01-19 22:34:00,3.0,-11.0,30.24,WNW,300,0.0,-999.0,51,-99.99,,,-99.99,,2013-01-20 04:34:00,
2013-01-19 22:45:00,3.0,-11.0,30.24,WNW,300,0.0,-999.0,51,-99.99,,,-99.99,,2013-01-20 04:45:00,
2013-01-19 22:56:00,2.0,-12.0,30.26,WNW,301,1.0,-999.0,52,-99.99,,,-99.99,,2013-01-20 04:56:00,
2013-01-19 23:03:00,2.0,-12.0,30.26,WNW,301,1.0,-999.0,52,-99.99,,,-99.99,,2013-01-20 05:03:00,
2013-01-19 23:12:00,2.0,-12.0,30.26,WNW,301,1.0,-999.0,52,-99.99,,,-99.99,,2013-01-20 05:12:00,
2013-01-19 23:22:00,2.0,-12.0,30.25,NNW,334,0.0,-999.0,52,-99.99,,,-99.99,,2013-01-20 05:22:00,
2013-01-19 23:32:00,2.0,-12.0,30.25,NNW,334,0.0,-999.0,52,-99.99,,,-99.99,,2013-01-20 05:32:00,
2013-01-19 23:43:00,2.0,-12.0,30.25,NNW,334,0.0,-999.0,52,-99.99,,,-99.99,,2013-01-20 05:43:00,
2013-01-19 23:53:00,1.0,-12.0,30.24,NW,309,11.0,-999.0,52,-99.99,,,-99.99,,2013-01-20 05:53:00,